Flag for Canada Weather past 2 weeks in Saguenay, Quebec, Canada

Now
56 °F

Cool.


Feels Like: 56 °F
Forecast: 57 / 72 °F
Wind: 2 mph from Northeast

Location: Jonquiere Airport

Current Time: Aug 4, 2015 at 4:26:15 AM

Latest Report: Aug 4, 2015 at 4:00 AM


Visibility: N/A

Pressure: 29.71 "Hg

Humidity: 100%

Dew point: 56 °F

Location of SaguenayLocation

Historic Weather in Saguenay — Graph

°F

Saguenay temperature yesterday

Maximum temperature yesterday: 74 °F (at 5:00 PM)
Minimum temperature yesterday: 61 °F (at 11:00 PM)
Average temperature yesterday: 65 °F

Past Weeks' High & Low Weather Summary

 TemperatureHumidityPressure
High82 °F (Jul 29, 3:00 PM)100% (Jul 21, 6:00 AM)30.07 "Hg (Jul 21, 6:00 AM)
Low51 °F (Jul 25, 5:00 AM)35% (Jul 29, 5:00 PM)29.47 "Hg (Jul 21, 2:00 PM)
Average64 °F81%29.77 "Hg
* Reported Jul 20 3:00 AM — Aug 4 3:00 AM, Saguenay, Weather by CustomWeather, © 2015

Note: Actual official high and low records may vary slightly from our data, if they occured in-between our weather recording intervals... More about our weather records

Advertising

Saguenay weather history for previous 24 hours

 ConditionsComfort  
Time TempWeatherWind HumidityBarometerVisibility
3:00 AM
Tue, Aug 4
60 °FCool.6 mph92%29.70 "HgN/A
2:00 AM61 °FCool.5 mph90%29.69 "HgN/A
1:00 AM60 °FCool.7 mph90%29.70 "HgN/A
12:00 AM60 °FCool.7 mph92%29.70 "HgN/A
11:00 PM
Mon, Aug 3
61 °FCool.5 mph92%29.69 "HgN/A
10:00 PM63 °FMild.3 mph90%29.67 "HgN/A
9:00 PM64 °FMild.5 mph87%29.67 "HgN/A
8:00 PM67 °FMild.7 mph84%29.65 "HgN/A
7:00 PM70 °FMild.6 mph79%29.63 "HgN/A
6:00 PM71 °FMild.14 mph73%29.62 "HgN/A
5:00 PM74 °FMild.13 mph70%29.61 "HgN/A
4:00 PM68 °FMild.15 mph81%29.60 "HgN/A
3:00 PM73 °FMild.15 mph68%29.60 "HgN/A
2:00 PM72 °FMild.12 mph73%29.59 "HgN/A
1:00 PM72 °FMild.12 mph73%29.59 "HgN/A
12:00 PM67 °FMild.9 mph84%29.58 "HgN/A
11:00 AM65 °FMild.6 mph93%29.57 "HgN/A
10:00 AM64 °FMild.6 mph95%29.56 "HgN/A
9:00 AM63 °FMild.6 mph96%29.57 "HgN/A
8:00 AM62 °FCool.5 mph95%29.59 "HgN/A
7:00 AM62 °FCool.6 mph94%29.59 "HgN/A
6:00 AM63 °FMild.9 mph92%29.61 "HgN/A
5:00 AM62 °FCool.8 mph94%29.62 "HgN/A
4:00 AM62 °FCool.7 mph94%29.63 "HgN/A
Weather by CustomWeather, © 2015

See weather overviewHow to use our weather pages